TimeMDT,TemperatureF,Dew PointF,Humidity,Sea Level PressureIn,VisibilityMPH,Wind Direction,Wind SpeedMPH,Gust SpeedMPH,PrecipitationIn,Events,Conditions,WindDirDegrees,DateUTC
12:15 AM,58.1,50.2,75,29.90,10.0,South,18.4,25.3,N/A,,Scattered Clouds,170,2013-10-14 06:15:00
12:35 AM,58.1,50.0,74,29.90,10.0,SSE,17.3,26.5,N/A,,Scattered Clouds,160,2013-10-14 06:35:00
12:55 AM,57.2,49.6,76,29.88,10.0,South,9.2,-,N/A,,Clear,170,2013-10-14 06:55:00
1:15 AM,57.4,47.7,70,29.87,10.0,South,15.0,19.6,N/A,,Clear,190,2013-10-14 07:15:00
1:35 AM,55.4,45.9,70,29.87,10.0,South,10.4,-,N/A,,Clear,180,2013-10-14 07:35:00
1:55 AM,54.7,44.2,68,29.88,10.0,SSE,13.8,-,N/A,Thunderstorm,Clear,150,2013-10-14 07:55:00
2:15 AM,53.1,45.9,77,29.87,10.0,SE,12.7,-,N/A,,Clear,140,2013-10-14 08:15:00
2:35 AM,51.8,46.4,82,29.87,10.0,SSE,10.4,-,N/A,,Clear,150,2013-10-14 08:35:00
2:55 AM,52.0,47.3,84,29.87,10.0,SE,11.5,-,N/A,,Clear,140,2013-10-14 08:55:00
3:15 AM,52.9,47.7,82,29.86,10.0,SSE,13.8,19.6,N/A,,Clear,150,2013-10-14 09:15:00
3:35 AM,52.2,46.9,82,29.85,10.0,SSE,9.2,-,N/A,,Clear,160,2013-10-14 09:35:00
3:55 AM,52.0,46.4,81,29.84,10.0,South,11.5,17.3,N/A,,Clear,170,2013-10-14 09:55:00
4:15 AM,50.9,46.0,83,29.83,10.0,South,6.9,-,N/A,,Clear,180,2013-10-14 10:15:00
4:35 AM,49.1,45.3,87,29.83,10.0,WSW,4.6,-,N/A,,Clear,250,2013-10-14 10:35:00
4:55 AM,47.1,44.6,91,29.83,10.0,West,6.9,-,N/A,,Clear,260,2013-10-14 10:55:00
5:15 AM,49.3,45.7,87,29.84,10.0,West,9.2,-,N/A,,Clear,260,2013-10-14 11:15:00
5:35 AM,48.9,44.6,85,29.84,10.0,West,11.5,-,N/A,,Clear,260,2013-10-14 11:35:00
5:55 AM,48.9,44.6,85,29.84,10.0,West,11.5,-,N/A,Thunderstorm,Clear,260,2013-10-14 11:55:00
6:15 AM,49.1,43.9,82,29.83,10.0,WSW,10.4,-,N/A,,Clear,250,2013-10-14 12:15:00
6:35 AM,48.2,43.0,82,29.84,10.0,WSW,6.9,-,N/A,,Clear,240,2013-10-14 12:35:00
6:55 AM,48.4,43.5,83,29.84,10.0,North,11.5,-,N/A,,Clear,350,2013-10-14 12:55:00
7:15 AM,49.1,44.2,83,29.85,10.0,North,17.3,23.0,N/A,,Scattered Clouds,360,2013-10-14 13:15:00
7:35 AM,48.6,41.7,77,29.83,10.0,North,10.4,17.3,N/A,,Clear,360,2013-10-14 13:35:00
7:55 AM,49.1,42.1,77,29.82,10.0,NNE,15.0,-,N/A,,Clear,20,2013-10-14 13:55:00
8:15 AM,49.8,42.3,75,29.82,10.0,NNE,12.7,-,N/A,,Clear,30,2013-10-14 14:15:00
8:35 AM,51.1,42.3,72,29.81,10.0,NE,15.0,-,N/A,Thunderstorm,Clear,40,2013-10-14 14:35:00
8:55 AM,52.7,42.6,69,29.81,10.0,NNE,15.0,-,N/A,Thunderstorm,Clear,30,2013-10-14 14:55:00
9:15 AM,55.8,42.1,60,29.82,10.0,North,15.0,20.7,N/A,,Scattered Clouds,10,2013-10-14 15:15:00
9:35 AM,52.7,41.7,66,29.85,10.0,WNW,23.0,31.1,N/A,,Mostly Cloudy,300,2013-10-14 15:35:00
9:55 AM,44.8,41.0,87,29.86,4.0,NW,17.3,31.1,N/A,Rain-Thunderstorm,Thunderstorms and Rain,310,2013-10-14 15:55:00
10:15 AM,45.9,42.6,88,29.87,7.0,NW,12.7,16.1,N/A,Rain-Thunderstorm,Rain,310,2013-10-14 16:15:00
10:35 AM,46.2,42.1,85,29.87,7.0,NW,16.1,-,N/A,Rain,Rain,320,2013-10-14 16:35:00
10:55 AM,46.4,42.6,87,29.86,10.0,NNW,9.2,-,N/A,Rain-Thunderstorm,Light Thunderstorms and Rain,330,2013-10-14 16:55:00
11:15 AM,47.1,43.5,87,29.86,10.0,NW,3.5,-,N/A,Rain,Light Rain,320,2013-10-14 17:15:00
11:35 AM,47.7,43.9,87,29.88,10.0,WNW,10.4,16.1,N/A,,Light Drizzle,290,2013-10-14 17:35:00
11:55 AM,46.4,43.7,90,29.89,4.0,WNW,25.3,32.2,N/A,Rain,Rain,300,2013-10-14 17:55:00
12:15 PM,45.3,42.3,89,29.91,5.0,WNW,21.9,34.5,N/A,Rain,Rain,300,2013-10-14 18:15:00
12:35 PM,43.7,40.1,87,29.92,5.0,NW,26.5,32.2,N/A,Rain,Rain,320,2013-10-14 18:35:00
12:55 PM,42.1,39.0,89,29.93,4.0,NW,20.7,32.2,N/A,Rain,Rain,320,2013-10-14 18:55:00
1:15 PM,41.2,38.1,89,29.93,5.0,NW,21.9,31.1,N/A,Rain,Light Rain,320,2013-10-14 19:15:00
1:35 PM,41.0,37.9,89,29.93,7.0,NNW,24.2,28.8,N/A,Rain,Light Rain,330,2013-10-14 19:35:00
1:55 PM,40.6,36.9,86,29.94,7.0,NNW,27.6,39.1,N/A,Rain,Light Rain,340,2013-10-14 19:55:00
2:15 PM,41.5,37.4,85,29.94,10.0,NNW,23.0,31.1,N/A,,Overcast,340,2013-10-14 20:15:00
2:35 PM,42.3,37.4,83,29.94,10.0,NNW,19.6,32.2,N/A,,Overcast,340,2013-10-14 20:35:00
2:55 PM,43.7,37.4,78,29.96,10.0,NNW,23.0,35.7,N/A,,Overcast,330,2013-10-14 20:55:00
3:15 PM,44.4,36.9,75,29.97,10.0,NNW,23.0,33.4,N/A,,Overcast,330,2013-10-14 21:15:00
3:35 PM,44.2,35.6,72,29.98,10.0,NNW,21.9,33.4,N/A,,Overcast,330,2013-10-14 21:35:00
3:55 PM,44.6,35.6,71,29.98,10.0,NNW,27.6,34.5,N/A,,Overcast,340,2013-10-14 21:55:00
4:15 PM,44.8,34.7,68,29.98,10.0,North,31.1,41.4,N/A,,Overcast,350,2013-10-14 22:15:00
4:35 PM,44.6,34.0,66,29.99,10.0,NNW,29.9,40.3,N/A,,Overcast,340,2013-10-14 22:35:00
4:55 PM,44.6,33.3,64,30.00,10.0,North,33.4,40.3,N/A,,Overcast,350,2013-10-14 22:55:00
5:15 PM,43.7,32.2,64,30.01,10.0,NNW,35.7,46.0,N/A,,Mostly Cloudy,340,2013-10-14 23:15:00
5:35 PM,42.8,31.6,65,30.02,10.0,NNW,26.5,40.3,N/A,,Scattered Clouds,340,2013-10-14 23:35:00
5:55 PM,42.3,31.3,65,30.03,10.0,NNW,31.1,39.1,N/A,,Clear,340,2013-10-14 23:55:00
6:15 PM,41.9,31.3,66,30.03,10.0,North,32.2,40.3,N/A,,Clear,350,2013-10-15 00:15:00
6:35 PM,41.4,30.9,66,30.04,10.0,North,29.9,38.0,N/A,,Clear,350,2013-10-15 00:35:00
6:55 PM,41.0,30.9,67,30.04,10.0,North,28.8,36.8,N/A,,Clear,350,2013-10-15 00:55:00
7:15 PM,40.6,30.9,68,30.05,10.0,North,29.9,38.0,N/A,,Clear,350,2013-10-15 01:15:00
7:35 PM,40.1,30.6,69,30.06,10.0,North,29.9,41.4,N/A,,Clear,350,2013-10-15 01:35:00
7:55 PM,39.6,30.0,69,30.07,10.0,North,31.1,41.4,N/A,,Clear,350,2013-10-15 01:55:00
8:15 PM,39.2,29.5,68,30.09,10.0,North,31.1,42.6,N/A,,Clear,350,2013-10-15 02:15:00
8:35 PM,38.5,28.9,69,30.09,10.0,North,27.6,42.6,N/A,,Clear,350,2013-10-15 02:35:00
8:55 PM,37.6,28.8,70,30.10,10.0,NNW,31.1,39.1,N/A,,Clear,340,2013-10-15 02:55:00
9:15 PM,37.0,28.4,71,30.12,10.0,NNW,28.8,36.8,N/A,,Clear,340,2013-10-15 03:15:00
9:35 PM,36.5,27.9,71,30.13,10.0,NNW,23.0,34.5,N/A,,Clear,340,2013-10-15 03:35:00
9:55 PM,36.5,27.9,71,30.13,10.0,NNW,25.3,36.8,N/A,,Clear,340,2013-10-15 03:55:00
10:15 PM,36.0,27.7,72,30.14,10.0,NNW,27.6,35.7,N/A,,Clear,340,2013-10-15 04:15:00
10:35 PM,35.6,27.5,72,30.15,10.0,North,26.5,36.8,N/A,,Clear,350,2013-10-15 04:35:00
10:55 PM,35.6,27.3,72,30.16,10.0,NNW,26.5,34.5,N/A,,Clear,340,2013-10-15 04:55:00
11:15 PM,35.1,27.0,72,30.16,10.0,NNW,26.5,32.2,N/A,,Clear,340,2013-10-15 05:15:00
11:35 PM,34.7,27.3,74,30.17,10.0,NNW,25.3,31.1,N/A,,Clear,340,2013-10-15 05:35:00
11:55 PM,34.7,27.0,73,30.17,10.0,North,25.3,31.1,N/A,,Clear,350,2013-10-15 05:55:00